Evanston, WY

8:25 PM MST on December 02, 2016 (GMT -0700)
Evanston-Uinta County Burns

Weather History for KEVW - February, 2013

Change the Weather History Date:

Monday, February 4, 2013

  Actual Average Record
Temperature  
Mean Temperature 25 °F 22 °F  
Max Temperature 35 °F 29 °F 43 °F (2015)
Min Temperature 15 °F 14 °F 2 °F (2016)
Degree Days  
Heating Degree Days 40 43  
Month to date heating degree days 157 174  
Since 1 July heating degree days 4512 5003  
Cooling Degree Days 0 0  
Month to date cooling degree days 0 0  
Year to date cooling degree days 0 0  
Moisture  
Dew Point 14 °F    
Average Humidity 63    
Maximum Humidity 74    
Minimum Humidity 51    
Precipitation  
Precipitation 0.00 in 0.01 in 0.06 in (2004)
Month to date precipitation 0.00 0.06  
Year to date precipitation 0.11 0.60  
Sea Level Pressure  
Sea Level Pressure 30.20 in    
Wind  
Wind Speed 12 mph (SW)    
Max Wind Speed 21 mph    
Max Gust Speed 24 mph    
Visibility 10 miles    
Events      
T = Trace of Precipitation, MM = Missing Value Source: NWS Daily Summary

Daily Weather History Graph

Daily Weather History Graph

Search for Another Location

Airport or City:

Trip Planner

Search our weather history database for the weather conditions in past years. The results will help you decide how hot, cold, wet, or windy it might be!

Date:

Astronomy

Feb. 04, 2013 Rise Set
Actual Time 7:31 AM MST 5:44 PM MST
Civil Twilight 7:02 AM MST 6:13 PM MST
Nautical Twilight 6:30 AM MST 6:46 PM MST
Astronomical Twilight 5:57 AM MST 7:19 PM MST
Moon 2:12 AM MST (2/4) 12:10 PM MST (2/4)
Length of Visible Light 11h 10m
Length of Day
10h 13m
Last Quarter, 36% of the Moon is Illuminated
Feb 4
Last Quarter
Feb 10
New
Feb 17
First Quarter
Feb 25
Full
Mar 4
Last Quarter

Hourly Weather History & Observations

Time (MST) Temp. Windchill Dew Point Humidity Pressure Visibility Wind Dir Wind Speed Gust Speed Precip Events Conditions
12:53 AM 19.9 °F 9.3 °F 12.0 °F 71% 30.20 in 10.0 mi SW 9.2 mph - N/A   Clear
1:53 AM 18.0 °F 6.9 °F 10.0 °F 71% 30.19 in 10.0 mi SW 9.2 mph - N/A   Clear
3:53 AM 15.1 °F 2.5 °F 9.0 °F 77% 30.19 in 10.0 mi SW 10.4 mph - N/A   Clear
4:53 AM 18.0 °F 4.8 °F 10.0 °F 71% 30.18 in 10.0 mi SW 12.7 mph - N/A   Clear
5:53 AM 18.0 °F 6.9 °F 10.0 °F 71% 30.22 in 10.0 mi WSW 9.2 mph - N/A   Clear
6:53 AM 17.1 °F 5.8 °F 10.0 °F 74% 30.25 in 10.0 mi WSW 9.2 mph - N/A   Clear
7:53 AM 19.0 °F 6.8 °F 10.9 °F 71% 30.25 in 10.0 mi SW 11.5 mph - N/A   Clear
8:53 AM 21.0 °F 8.6 °F 12.9 °F 71% 30.25 in 10.0 mi SW 12.7 mph - N/A   Clear
9:53 AM 21.9 °F 7.8 °F 14.0 °F 72% 30.25 in 10.0 mi SW 17.3 mph - N/A   Clear
10:53 AM 28.0 °F 16.5 °F 16.0 °F 61% 30.21 in 10.0 mi WSW 15.0 mph 21.9 mph N/A   Clear
11:53 AM 32.0 °F 20.5 °F 18.0 °F 56% 30.21 in 10.0 mi SW 18.4 mph - N/A   Clear
12:53 PM 33.1 °F 21.9 °F 19.9 °F 59% 30.18 in 10.0 mi WSW 18.4 mph - N/A   Overcast
1:53 PM 34.0 °F 23.8 °F 19.0 °F 54% 30.17 in 10.0 mi SW 16.1 mph - N/A   Overcast
2:53 PM 35.1 °F 24.5 °F 19.0 °F 52% 30.16 in 10.0 mi WSW 18.4 mph - N/A   Scattered Clouds
3:53 PM 33.1 °F 23.0 °F 19.0 °F 56% 30.22 in 10.0 mi WSW 15.0 mph - N/A   Mostly Cloudy
4:53 PM 33.1 °F 23.4 °F 17.1 °F 52% 30.18 in 10.0 mi WSW 13.8 mph - N/A   Partly Cloudy
5:53 PM 30.0 °F 21.1 °F 19.0 °F 64% 30.20 in 10.0 mi SW 10.4 mph - N/A   Overcast
6:53 PM 28.0 °F 18.1 °F 17.1 °F 63% 30.21 in 10.0 mi SW 11.5 mph - N/A   Mostly Cloudy
7:53 PM 26.1 °F 16.8 °F 15.1 °F 63% 30.20 in 10.0 mi SW 9.2 mph - N/A   Clear
8:53 PM 24.1 °F 14.4 °F 14.0 °F 65% 30.23 in 10.0 mi WSW 9.2 mph - N/A   Mostly Cloudy
9:53 PM 21.9 °F 10.4 °F 12.9 °F 68% 30.25 in 10.0 mi WSW 11.5 mph - N/A   Partly Cloudy
10:53 PM 25.0 °F 15.5 °F 12.9 °F 60% 30.17 in 10.0 mi SSW 9.2 mph - N/A   Clear
11:53 PM 25.0 °F 16.3 °F 12.0 °F 58% 30.14 in 10.0 mi South 8.1 mph - N/A   Clear